COSMOS 2221

Last updated on Mon Sep 21 2026 00:02:08 GMT+0000 (Coordinated Universal Time)

1 22236U 92080A 26263.47796678 .00000957 00000+0 81298-4 0 9999 2 22236 82.4999 92.4493 0012702 256.3186 103.6622 14.96752672809929
UTC large
Height (km)
Speed (km/s)
/
Latitude / Longitude
Inclination (degrees)
Orbital Period (minutes)
Azimuth
Elevation
Range (km)
Doppler Factor

Next 0 passes for location: London (51.5072 / 0.1276)

No passes found over London.
COSMOS 2221